Location: Smeeth
(51.1167°N, 0.9667°E)
Time: 21:14:22
(UTC+00:00)

Daily predictions for brighter satellites

Satellite Brightness Start Highest point End
(mag) Time Altitude Azimuth Time Altitude Azimuth Time Altitude Azimuth
Cosmos 2227 Rocket 2.3 16:19:06 10° SSW 16:24:46 88° NW 16:30:28 10° NNE
Cosmos 44 3.7 16:20:16 10° NW 16:25:43 83° SW 16:30:55 10° SE
Cosmos 1140 Rocket 4.0 16:21:36 10° NNW 16:26:23 36° NE 16:31:07 10° ESE
SAR-Lupe-2 3.7 16:27:13 10° SSE 16:30:40 51° ENE 16:34:11 10° N
Spot 4 Rocket 4.4 16:28:11 10° S 16:33:18 73° WSW 16:38:28 10° NNW
Cosmos 1666 3.1 16:30:01 10° N 16:33:18 35° ENE 16:36:36 10° SE
ARGOS 3.5 16:29:06 10° S 16:34:31 74° WSW 16:39:58 10° NNW
Cosmos 1603 4.2 16:30:55 10° NNW 16:36:16 39° NE 16:41:32 10° ESE
PSLV R/B 3.8 16:35:02 10° S 16:39:18 74° WSW 16:43:36 10° NNW
Cosmos 1076 Rocket 3.5 16:36:16 10° N 16:40:38 67° ENE 16:44:57 10° SSE
CZ-2C R/B 3.9 16:37:25 10° N 16:42:16 38° WNW 16:47:01 10° SW
Meteor 1-31 Rocket 3.2 16:40:32 10° SE 16:43:56 36° ENE 16:47:22 10° N
Cosmos 1544 2.9 16:42:16 10° NNW 16:45:32 80° W 16:48:47 10° S
USA 306 3.3 16:43:43 10° W 16:45:45 28° SSW 16:47:39 10° SSE
Tsikada Rocket 4.4 16:40:58 10° SSW 16:47:08 67° WNW 16:53:18 10° N
SJ-7 4.3 16:44:55 10° SSE 16:48:53 74° ENE 16:52:57 10° N
SL-16 R/B 3.2 16:43:52 10° NW 16:49:22 52° WSW 16:54:50 10° S
ATLAS CENTAUR R/B 2.4 16:45:45 10° WNW 16:49:29 88° SSW 16:56:41 10° SE
Cosmos 1238 Rocket 3.6 16:46:50 10° SSW 16:50:11 42° WNW 16:53:12 10° N
Cosmos 1602 3.8 16:48:36 10° N 16:52:14 48° ENE 16:55:51 10° SSE
RESURS DK-1 3.9 16:51:23 10° N 16:54:14 18° NE 16:56:12 13° ENE
USA 305 2.9 16:50:37 10° WNW 16:54:25 68° SSW 16:58:13 10° SE
Cosmos 1607 4.1 16:50:26 10° SW 16:56:47 89° SE 17:03:17 10° NE
Cosmos 1606 4.4 16:54:08 10° SW 16:57:25 32° WNW 17:00:45 10° N
CZ-4B R/B 3.9 16:55:20 10° SE 16:59:58 39° ENE 17:04:31 10° N
Cosmos 1943 3.1 16:54:47 10° NNW 17:00:26 71° ENE 17:06:04 10° SE
Helios 1A 4.2 16:58:42 12° NE 17:01:41 23° E 17:05:01 10° SSE
Cosmos 1782 4.3 16:59:30 10° SE 17:02:03 17° E 17:03:02 16° ENE
ATLAS 2AS CENTAUR R/B 3.1 16:55:31 10° NW 17:02:16 45° NNE 17:08:40 10° ESE
Cosmos 1812 Rocket 4.4 16:58:37 10° SSE 17:02:20 28° E 17:06:05 10° NNE
Cosmos 1500 3.2 17:00:27 10° NNW 17:03:58 73° W 17:07:29 10° S
SMAP 3.0 17:01:54 10° SSE 17:06:33 78° ENE 17:11:14 10° NNW
Helios 1B rocket 3.2 17:03:13 10° S 17:07:04 54° WSW 17:10:58 10° NNW
CZ-4B R/B 3.5 17:06:20 10° SSE 17:09:54 69° ENE 17:13:34 10° N
Cosmos 407 Rocket 3.5 17:06:47 10° NNW 17:11:54 57° ENE 17:16:56 10° SE
SL-16 R/B 4.2 17:07:24 10° N 17:12:41 30° NW 17:17:57 10° WSW
Cosmos 2297 Rocket 3.7 17:08:05 10° WSW 17:13:04 31° NW 17:18:05 10° NNE
SOZ 4.2 17:12:15 10° WSW 17:14:24 62° SSE 17:16:19 21° E
Radarsat Rocket 4.2 17:08:55 10° SE 17:14:27 46° ENE 17:20:21 10° N
Cosmos 405 Rocket 3.7 17:12:31 10° SSW 17:16:12 46° WNW 17:19:57 10° N
ISS -1.1 17:15:25 10° W 17:18:01 21° SW 17:20:36 10° SSE
Cosmos 2219 3.7 17:13:54 10° SW 17:19:26 58° NW 17:25:03 10° NNE
Cosmos 2251 Rocket 3.5 17:14:21 10° NNW 17:19:42 69° ENE 17:25:02 10° SSE
Cosmos 220 Rocket 4.5 17:19:25 10° NNW 17:23:28 37° ENE 17:27:25 10° SE
Lacrosse 5 3.1 17:26:01 10° S 17:30:02 24° SE 17:31:43 20° E
COSMO-SKYMED 1 3.3 17:29:31 23° NE 17:31:13 31° E 17:35:04 10° SSE
Cosmos-2242 2.9 17:27:28 10° S 17:31:46 68° E 17:36:04 10° NNE
Lacrosse 4 Rocket 1.9 17:27:53 10° NW 17:32:12 66° WSW 17:36:25 10° SSE
Cosmos 1833 Rocket 4.0 17:28:50 10° NNW 17:32:57 20° NE 17:33:48 20° NE
Cosmos 2082 4.0 17:28:54 10° SW 17:34:29 68° WNW 17:39:46 12° NNE
Cosmos 2058 Rocket 4.2 17:30:38 10° SSW 17:34:52 44° WNW 17:39:07 10° N
Cosmos 1553 Rocket 4.5 17:32:18 10° N 17:38:05 36° ENE 17:43:46 10° SE
APEX 2.6 17:37:06 10° SSW 17:39:57 47° ESE 17:39:58 47° ESE
Meteor 1-25 Rocket 4.1 17:35:43 10° NNW 17:41:26 85° ENE 17:47:02 10° SSE
Meteor 2-2 Rocket 4.3 17:35:51 10° S 17:41:31 59° E 17:47:18 10° NNE
USA 234 3.7 17:37:35 23° ENE 17:41:31 47° SE 17:47:47 10° SSW
Cosmos 2221 3.9 17:38:57 10° SE 17:41:02 21° ESE 17:41:02 21° ESE
Cosmos 2344 3.6 17:35:12 10° SSW 17:42:28 53° ESE 17:47:05 23° ENE
Cosmos 1190 Rocket 4.0 17:38:43 10° NNW 17:44:00 62° ENE 17:49:14 10° SE
Cosmos 1812 2.5 17:41:10 10° S 17:44:51 89° E 17:47:41 16° N
Cosmos 1818 3.8 17:41:09 10° SSW 17:46:22 50° ESE 17:48:46 30° ENE
USA 276 2.3 17:45:57 10° WSW 17:48:03 42° S 17:48:03 42° S
Cosmos 2026 Rocket 4.1 17:42:36 10° SSE 17:48:40 55° E 17:54:51 10° NNE
Cosmos 2195 Rocket 4.4 17:49:29 10° S 17:55:45 71° E 18:02:00 10° NNE
CZ-4B R/B 4.3 18:01:43 26° NE 18:01:43 26° NE 18:05:11 10° N
Cosmos 1844 Rocket 3.0 17:55:24 10° S 18:00:38 44° ESE 18:02:02 37° ENE
Cosmos 2263 Rocket 2.8 17:55:13 10° SW 18:00:38 52° NW 18:05:03 16° NNE
Meteor 1-26 Rocket 4.4 17:56:39 10° SSE 18:01:55 45° E 18:04:18 29° NE
Cosmos 1766 Rocket 3.5 17:58:45 10° N 18:03:04 54° ENE 18:07:19 10° SSE
YAOGAN 1 3.1 18:07:03 40° NNE 18:07:03 40° NNE 18:10:14 10° N
Cosmos 1092 Rocket 3.8 18:00:03 10° S 18:06:08 73° E 18:12:17 10° NNE
Nadezhda 4 Rocket 4.3 18:00:10 10° SSW 18:06:17 67° WNW 18:12:24 10° N
Cosmos 1933 3.1 18:03:24 10° S 18:07:23 69° E 18:07:55 59° NE
Cosmos 1420 Rocket 4.3 18:02:54 10° S 18:07:52 45° ESE 18:08:28 43° E
Cosmos 2227 4.2 18:03:26 10° SSW 18:09:12 89° WNW 18:12:32 27° NNE
Cosmos 2227 Rocket 4.1 18:05:08 10° W 18:09:38 24° NW 18:14:00 10° NNE
Cosmos 2082 Rocket 4.0 18:06:43 10° N 18:09:22 16° NNE 18:09:22 16° NNE
YAOGAN 3 4.4 18:06:48 10° SSE 18:11:04 64° ENE 18:15:22 10° N
ADEOS 3.4 18:06:07 10° SSE 18:11:19 80° ENE 18:16:34 10° NNW
Meteor 1-5 Rocket 4.1 18:06:27 10° N 18:12:09 77° ENE 18:18:00 10° SSE
Cosmos 1624 Rocket 4.2 18:10:42 10° S 18:15:39 47° ESE 18:15:39 47° ESE
BREEZE-M DEB (TANK) 3.3 18:14:04 10° WSW 18:15:04 27° WSW 18:15:04 27° WSW
SKYMED 2 3.4 18:18:08 44° NNE 18:19:29 87° ESE 18:23:50 10° SSW
CZ-4B R/B 3.5 18:20:41 44° N 18:20:41 44° N 18:23:40 10° N
SL-08 R/B 3.1 18:25:44 70° E 18:25:52 71° ESE 18:30:29 10° S
Cosmos 192 4.2 18:23:12 10° SSW 18:28:04 78° ESE 18:28:35 69° NE
RESURS DK-1 2.6 18:28:29 10° NNW 18:31:56 61° NW 18:31:56 61° NW
Helios 1A 4.0 18:35:01 24° N 18:37:07 43° WNW 18:41:03 10° SW
Cosmos 1782 3.6 18:33:46 10° SSW 18:37:34 49° WNW 18:38:16 43° NW
Cosmos 676 Rocket 4.0 18:32:35 10° NNW 18:37:56 83° WSW 18:40:04 37° SSE
ATLAS 2AS CENTAUR R/B 2.9 18:46:42 10° NW 18:53:34 67° SW 18:56:38 33° SSE
CZ-4B DEB 4.3 18:53:03 24° S 18:56:33 77° WSW 19:02:09 10° NNW
Cosmos 1241 Rocket 4.4 18:54:37 10° SSW 19:00:35 72° SSE 19:00:35 72° SSE
ADEOS Rocket 4.2 19:09:44 27° N 19:09:44 27° N 19:12:19 10° N
COSMO-SKYMED 1 4.0 19:06:43 32° NW 19:07:24 34° WNW 19:11:20 10° SW
Cosmos 2056 Rocket 3.8 19:04:11 10° SSW 19:09:06 66° W 19:09:06 66° W
Lacrosse 5 2.7 19:07:26 10° WSW 19:10:56 46° SW 19:10:56 46° SW
Cosmos 1844 3.9 19:06:47 10° SW 19:12:19 70° WNW 19:12:19 70° WNW
COSMOS 2455 4.1 19:07:17 10° SSW 19:10:14 30° S 19:10:14 30° S
Timation 2 Rocket 4.0 19:09:37 10° SW 19:15:34 69° NW 19:15:41 69° NW
Cosmos 1833 Rocket 3.8 19:12:16 10° NNW 19:15:30 35° NNW 19:15:30 35° NNW
S3M 4.5 19:15:43 10° NNW 19:20:09 50° NNW 19:20:09 50° NNW
USA 234 3.2 19:24:56 78° NW 19:24:56 78° NW 19:31:23 10° WSW
Cosmos 1844 Rocket 3.9 19:39:22 10° WSW 19:43:43 37° WNW 19:43:43 37° WNW
Cosmos 2263 Rocket 4.4 19:42:27 10° WNW 19:45:55 16° NNW 19:46:45 16° NNW
Cosmos 2082 Rocket 4.5 19:50:09 10° NNW 19:51:12 16° NNW 19:51:12 16° NNW
Cosmos 2344 4.0 19:49:52 10° WSW 19:56:56 50° NNW 19:57:06 50° NNW
